Flag for El Salvador Weather past 2 weeks in Santa Ana, El Salvador

Now
86 °F

Sunny.


Feels Like: 87 °F
Forecast: 61 / 82 °F
Wind: 15 mph from Northwest

Location: San Salvador / Ilopango

Current Time: Jan 27, 2015 at 1:40:37 PM

Latest Report: Jan 27, 2015 at 12:50 PM


Visibility: 10 mi

Pressure: 30.01 "Hg

Humidity: 49%

Dew point: 64 °F

Location of Santa AnaLocation

Historic Weather in Santa Ana — Graph

°F

Santa Ana temperature yesterday

Maximum temperature yesterday: 86 °F (at 12:50 PM)
Minimum temperature yesterday: 63 °F (at 5:50 AM)
Average temperature yesterday: 74 °F

Past Weeks' High & Low Weather Summary

 TemperatureHumidityPressure
High91 °F (Jan 12, 1:50 PM)94% (Jan 17, 6:50 AM)30.18 "Hg (Jan 17, 6:50 AM)
Low63 °F (Jan 26, 5:50 AM)46% (Jan 14, 1:50 PM)29.89 "Hg (Jan 14, 3:50 PM)
Average77 °F68%30.02 "Hg
* Reported Jan 12 11:50 AM — Jan 27 11:50 AM, Santa Ana, Weather by CustomWeather, © 2014

Note: Actual official high and low records may vary slightly from our data, if they occured in-between our weather recording intervals... More about our weather records

Advertising

Santa Ana weather history for previous 24 hours

 ConditionsComfort  
Time TempWeatherWind HumidityBarometerVisibility
11:50 AM
Jan 27
82 °FSunny.12 mph51%30.07 "Hg10 mi
10:50 AM79 °FSunny.10 mph54%30.07 "Hg10 mi
9:50 AM75 °FSunny.13 mph61%30.07 "Hg10 mi
8:50 AM72 °FSunny.13 mph69%30.07 "Hg10 mi
7:50 AM68 °FSunny.15 mph73%30.07 "Hg10 mi
6:50 AM64 °FSunny.14 mph78%30.07 "Hg10 mi
5:50 AM64 °FClear.12 mph78%30.07 "Hg10 mi
11:50 PM
Jan 26
66 °FClear.9 mph78%30.09 "Hg10 mi
10:50 PM66 °FClear.14 mph78%30.09 "Hg10 mi
9:50 PM70 °FClear.18 mph73%30.04 "Hg10 mi
8:50 PM68 °FClear.18 mph73%30.07 "Hg10 mi
7:50 PM70 °FClear.18 mph73%30.04 "Hg10 mi
6:50 PM73 °FClear.16 mph61%30.01 "Hg10 mi
5:50 PM77 °FPassing clouds.12 mph57%29.98 "HgN/A
3:50 PM84 °FPassing clouds.10 mph51%29.95 "HgN/A
2:50 PM86 °FPassing clouds.9 mph49%29.98 "HgN/A
1:50 PM86 °FPassing clouds.12 mph49%29.98 "HgN/A
Weather by CustomWeather, © 2014

See weather overviewHow to use our weather pages